JA77YD RJTI-RJTI

Flight info

Callsign JA77YD
Flight time 0h 15m
Altitude 1500
Route ARIAKE HAKOZAKI KAWAGUCHI KOMATSUGAWA
Aircraft EC30/L-V/N

Departure

Time 2026-05-06 16:22
Airport Tokyo Heliport (RJTI)

Arrival

Time 2026-05-06 16:38
Airport Tokyo Heliport (RJTI)
Time Latitude Longitude Altitude Speed Heading
2026-05-06 16:07 35.63616 139.83807 21 ft 0 kts
2026-05-06 16:19 35.63623 139.83812 24 ft 3 kts 26°
2026-05-06 16:20 35.63638 139.83839 26 ft 4 kts 82°
2026-05-06 16:20 35.63634 139.83910 33 ft 16 kts 117°
2026-05-06 16:20 35.63455 139.83943 108 ft 40 kts 174°
2026-05-06 16:20 35.63261 139.83665 247 ft 60 kts 255°
2026-05-06 16:21 35.63198 139.83109 307 ft 69 kts 257°
2026-05-06 16:21 35.63132 139.82509 377 ft 73 kts 261°
2026-05-06 16:21 35.63200 139.81866 419 ft 77 kts 280°
2026-05-06 16:21 35.63356 139.81260 465 ft 75 kts 284°
2026-05-06 16:22 35.63547 139.80644 494 ft 78 kts 284°
2026-05-06 16:22 35.63739 139.80024 528 ft 77 kts 286°
2026-05-06 16:22 35.63946 139.79452 571 ft 70 kts 292°
2026-05-06 16:22 35.64316 139.79051 668 ft 77 kts 336°
2026-05-06 16:23 35.64856 139.78874 806 ft 83 kts 346°
2026-05-06 16:23 35.65432 139.78770 971 ft 84 kts 349°
2026-05-06 16:23 35.66023 139.78727 1191 ft 87 kts 356°
2026-05-06 16:23 35.66659 139.78738 1384 ft 96 kts 358°
2026-05-06 16:24 35.67395 139.78707 1392 ft 115 kts 353°
2026-05-06 16:24 35.68227 139.78669 1375 ft 123 kts 357°
2026-05-06 16:24 35.69092 139.78700 1371 ft 126 kts
2026-05-06 16:24 35.69972 139.78763 1375 ft 128 kts
2026-05-06 16:25 35.70860 139.78873 1380 ft 129 kts
2026-05-06 16:25 35.71729 139.79167 1379 ft 130 kts 20°
2026-05-06 16:25 35.72556 139.79590 1437 ft 124 kts 26°
2026-05-06 16:25 35.73318 139.80067 1507 ft 125 kts 27°
2026-05-06 16:26 35.74131 139.80494 1507 ft 129 kts 19°
2026-05-06 16:26 35.75013 139.80538 1501 ft 127 kts 340°
2026-05-06 16:26 35.75670 139.79915 1505 ft 117 kts 294°
2026-05-06 16:26 35.75903 139.78993 1508 ft 112 kts 271°
2026-05-06 16:27 35.75990 139.78049 1508 ft 111 kts 269°
2026-05-06 16:27 35.76175 139.77104 1504 ft 116 kts 283°
2026-05-06 16:27 35.76537 139.76208 1508 ft 118 kts 292°
2026-05-06 16:27 35.76962 139.75341 1512 ft 119 kts 294°
2026-05-06 16:28 35.77391 139.74478 1511 ft 118 kts 294°
2026-05-06 16:28 35.77824 139.73619 1510 ft 118 kts 295°
2026-05-06 16:28 35.78264 139.72765 1515 ft 118 kts 296°
2026-05-06 16:28 35.78833 139.72026 1511 ft 124 kts 326°
2026-05-06 16:29 35.79683 139.71870 1521 ft 128 kts
2026-05-06 16:29 35.80437 139.72423 1520 ft 128 kts 53°
2026-05-06 16:29 35.80726 139.73392 1520 ft 120 kts 95°
2026-05-06 16:29 35.80447 139.74302 1516 ft 112 kts 137°
2026-05-06 16:30 35.79798 139.74773 1519 ft 108 kts 161°
2026-05-06 16:30 35.79334 139.75020 1514 ft 107 kts 159°
2026-05-06 16:30 35.78446 139.75555 1471 ft 108 kts 158°
2026-05-06 16:30 35.77739 139.75915 1335 ft 113 kts 159°
2026-05-06 16:31 35.77014 139.76293 1199 ft 112 kts 159°
2026-05-06 16:31 35.76382 139.76797 1115 ft 108 kts 139°
2026-05-06 16:31 35.76069 139.77634 1014 ft 109 kts 104°
2026-05-06 16:31 35.76069 139.78568 928 ft 103 kts 97°
2026-05-06 16:32 35.76014 139.79392 954 ft 93 kts 101°
2026-05-06 16:32 35.75902 139.80154 960 ft 88 kts 115°
2026-05-06 16:32 35.75663 139.80837 965 ft 86 kts 128°
2026-05-06 16:32 35.75291 139.81397 959 ft 84 kts 142°
2026-05-06 16:33 35.74841 139.81833 958 ft 81 kts 151°
2026-05-06 16:33 35.74371 139.82217 959 ft 81 kts 153°
2026-05-06 16:33 35.73900 139.82607 950 ft 82 kts 152°
2026-05-06 16:34 35.72945 139.83456 959 ft 89 kts 149°
2026-05-06 16:34 35.72435 139.83902 954 ft 91 kts 149°
2026-05-06 16:34 35.71922 139.84355 948 ft 91 kts 149°
2026-05-06 16:34 35.71412 139.84811 950 ft 90 kts 149°
2026-05-06 16:35 35.70898 139.85241 955 ft 89 kts 153°
2026-05-06 16:35 35.70347 139.85569 948 ft 87 kts 163°
2026-05-06 16:35 35.69759 139.85717 926 ft 86 kts 180°
2026-05-06 16:35 35.69152 139.85579 770 ft 93 kts 198°
2026-05-06 16:36 35.68566 139.85306 727 ft 88 kts 200°
2026-05-06 16:36 35.68001 139.85027 687 ft 86 kts 198°
2026-05-06 16:36 35.67437 139.84824 681 ft 84 kts 191°
2026-05-06 16:36 35.66854 139.84729 647 ft 86 kts 185°
2026-05-06 16:37 35.66266 139.84653 614 ft 85 kts 188°
2026-05-06 16:37 35.65706 139.84484 552 ft 81 kts 198°
2026-05-06 16:37 35.65232 139.84271 494 ft 62 kts 198°
2026-05-06 16:37 35.64852 139.84117 406 ft 55 kts 191°
2026-05-06 16:38 35.64516 139.84031 349 ft 45 kts 177°
2026-05-06 16:38 35.64205 139.84001 255 ft 46 kts 179°
2026-05-06 16:38 35.63920 139.83970 177 ft 37 kts 174°
2026-05-06 16:38 35.63703 139.83954 94 ft 23 kts 171°
2026-05-06 16:39 35.63602 139.83950 31 ft 6 kts 172°
2026-05-06 16:39 35.63563 139.83927 34 ft 8 kts 231°
2026-05-06 16:39 35.63560 139.83851 30 ft 9 kts 257°
2026-05-06 16:39 35.63562 139.83794 30 ft 6 kts 271°
2026-05-06 16:40 35.63576 139.83770 26 ft 2 kts 340°
2026-05-06 16:40 35.63583 139.83767 28 ft 0 kts
2026-05-06 16:40 35.63586 139.83767 22 ft 0 kts